Regional Weather Roundup
Issued by NWS

Home | Current Version | Previous Version | Text Only | Print | Product List | Glossary On
Versions: 1 2 3 4 5 6 7 8 9 10 11 12 13 14 15 16 17 18 19 20 21 22 23 24 25 26 27 28 29 30 31 32 33 34 35 36 37 38 39 40 41 42 43 44 45 46 47 48 49 50
000
ASUS43 KOAX 250310
RWRNE

WEATHER ROUNDUP FOR NEBRASKA
NATIONAL WEATHER SERVICE OMAHA NE
1000 PM CDT FRI MAR 24 2017

NOTES: SATELLITE DATA IS BEING USED TO AUGMENT CLOUD COVER ABOVE
       12000 FEET.
       "FAIR" INDICATES FEW OR NO CLOUDS BELOW 12,000 FEET WITH NO
       SIGNIFICANT WEATHER AND/OR OBSTRUCTIONS TO VISIBILITY.

  * THESE STATIONS DO NOT REPORT WEATHER SUCH AS RAIN...SNOW OR FOG.

NEZ001>004-019>022-054>056-250400-
NEBRASKA PANHANDLE

CITY           SKY/WX    TMP DP  RH WIND       PRES   REMARKS
SCOTTSBLUFF    CLEAR     39  28  64 SE6       30.11R WCI  35
ALLIANCE       CLEAR     35  26  69 CALM      30.11R
CHADRON        CLEAR     43  31  62 S9        30.09R
KIMBALL        CLEAR     37  31  78 SE6       30.13S WCI  33
SIDNEY         CLEAR     36  26  67 E6        30.13R WCI  31
$$

NEZ057>060-069>072-079>082-250400-
SOUTHWEST NEBRASKA

CITY           SKY/WX    TMP DP  RH WIND       PRES   REMARKS
NORTH PLATTE   CLOUDY    45  37  73 N8        30.09S
IMPERIAL       CLOUDY    44  37  76 NW7       30.10S
LEXINGTON      LGT RAIN  42  39  88 N22       30.05S
MCCOOK         LGT RAIN  41  41 100 NE9       30.06F
OGALLALA       CLEAR     39  32  76 N8        30.11S WCI  33
$$

NEZ005>010-023>029-035>040-094-250400-
NORTH CENTRAL NEBRASKA

CITY           SKY/WX    TMP DP  RH WIND       PRES   REMARKS
VALENTINE      CLEAR     38  28  67 E5        30.12S WCI  34
AINSWORTH      CLEAR     34  31  88 CALM      30.12R
BROKEN BOW     CLOUDY    43  38  82 N13       30.07S
O`NEILL        CLOUDY    40  38  92 N7        30.11S
ORD            CLOUDY    42  38  85 N9        30.07S
THEDFORD       CLOUDY    36  31  82 CALM      30.12R
$$

NEZ041-046>049-061>064-073>077-083>087-250400-
SOUTH CENTRAL NEBRASKA

CITY           SKY/WX    TMP DP  RH WIND       PRES   REMARKS
GRAND ISLAND   CLOUDY    40  40 100 N15       30.05R WCI  32
AURORA         CLOUDY    40  38  95 N20G25    30.04R WCI  30
HASTINGS       CLOUDY    40  37  89 NE18      30.04S WCI  31
HEBRON         LGT RAIN  41  39  92 N13G20    30.01R
HOLDREGE       CLOUDY    40  38  92 N16       30.05R WCI  32
KEARNEY *      CLOUDY    41  36  81 N16       30.05R
YORK           CLOUDY    39  39 100 N20       30.04R WCI  30
$$

NEZ011>018-030>034-042>045-250400-
NORTHEAST NEBRASKA

CITY           SKY/WX    TMP DP  RH WIND       PRES   REMARKS
NORFOLK        LGT RAIN  40  37  89 N16G23    30.06R FOG     WCI  31
ALBION         LGT RAIN  41  38  87 N10       30.07R
BLAIR          LGT RAIN  41  40  95 NE17G25   29.99R
FREMONT        LGT RAIN  41  41  97 N12G17    30.02S
TEKAMAH        LGT RAIN  42  39  89 N17       30.03S
WAYNE          CLOUDY    40  40  99 NE17G24   30.07R FOG     WCI  32
$$

NEZ050>053-065>068-078-088>093-250400-
SOUTHEAST NEBRASKA

CITY           SKY/WX    TMP DP  RH WIND       PRES   REMARKS
LINCOLN        CLOUDY    43  40  89 N15       30.03R
OMAHA EPPLEY   RAIN      43  38  82 N13G23    30.00R
BEATRICE       CLOUDY    44  41  89 N17G23    29.98R
FALLS CITY     LGT RAIN  47 N/A N/A N16       29.89R
NEBRASKA CITY  LGT RAIN  42  42  99 N15G22    29.96R
PLATTSMOUTH    LGT RAIN  42  39  88 N14G20    29.99R
$$

NEZ044-045-051>053-067-250400-
OMAHA AREA

CITY           SKY/WX    TMP DP  RH WIND       PRES   REMARKS
OMAHA EPPLEY   RAIN      43  38  82 N13G23    30.00R
BLAIR          LGT RAIN  41  40  95 NE17G25   29.99R
FREMONT        LGT RAIN  41  41  97 N12G17    30.02S
MILLARD        RAIN      44  42  91 N7        30.01R
OFFUTT AFB     RAIN      42  40  90 N15G22    30.00R
PLATTSMOUTH    LGT RAIN  42  39  88 N14G20    29.99R
WAHOO          RAIN      42  39  92 N17G24    30.01R
$$




USA.gov is the U.S. government's official web portal to all federal, state and local government web resources and services.